ON6AT-20 Weather Reports


Display with metric or nautical units.
time (UTC)temp
F
wind
direction
speed
MPH
gust
MPH
rain 1hr
in
rain 24hr
in
rain mn
in
humidity
%
barometer
mb
20260501224503 60 0 0.0 0.0 0.00 0.00 0.00 55 1020.3
20260501223604 60 0 0.0 0.0 0.00 0.00 0.00 54 1020.5
20260501222703 61 0 0.0 0.0 0.00 0.00 0.00 52 1020.4
20260501221803 62 237 0.0 1.0 0.00 0.00 0.00 51 1020.7
20260501220903 62 237 0.0 1.0 0.00 0.00 0.00 49 1020.6
20260501220003 62 0 0.0 0.0 0.00 0.00 0.00 52 1020.7
20260501215403 62 0 0.0 0.0 0.00 0.00 0.00 51 1020.8
20260501214503 62 0 0.0 0.0 0.00 0.00 0.00 51 1020.9
20260501213603 64 237 0.0 1.0 0.00 0.00 0.00 48 1021.0
20260501212703 64 237 0.0 1.0 0.00 0.00 0.00 46 1020.9
20260501211803 64 237 0.0 1.0 0.00 0.00 0.00 47 1020.8
20260501210903 65 237 0.0 1.0 0.00 0.00 0.00 47 1020.8
20260501210003 65 237 0.0 1.0 0.00 0.00 0.00 45 1020.7
20260501205403 66 237 0.0 1.0 0.00 0.00 0.00 45 1020.8
20260501204503 65 237 0.0 1.0 0.00 0.00 0.00 45 1020.6
20260501203603 66 237 0.0 1.0 0.00 0.00 0.00 44 1020.8
20260501202703 66 237 0.0 1.0 0.00 0.00 0.00 45 1020.8
20260501201803 67 237 0.0 1.0 0.00 0.00 0.00 44 1020.8
20260501200903 67 237 0.0 1.0 0.00 0.00 0.00 42 1020.7
20260501200024 68 237 0.0 1.0 0.00 0.00 0.00 43 1020.8
20260501195403 68 0 0.0 0.0 0.00 0.00 0.00 42 1020.7
20260501194524 68 238 0.0 1.0 0.00 0.00 0.00 43 1020.7
20260501193603 68 237 0.0 1.0 0.00 0.00 0.00 42 1020.7
20260501192724 66 238 0.0 2.0 0.00 0.00 0.00 42 1020.7
20260501191824 66 0 0.0 0.0 0.00 0.00 0.00 43 1020.5
20260501190903 67 0 0.0 0.0 0.00 0.00 0.00 42 1020.5
20260501190003 68 0 0.0 0.0 0.00 0.00 0.00 41 1020.3
20260501185403 69 0 0.0 0.0 0.00 0.00 0.00 40 1020.4
20260501184504 70 150 0.0 1.0 0.00 0.00 0.00 39 1020.3
20260501183603 71 150 0.0 1.0 0.00 0.00 0.00 37 1020.2
20260501182703 72 151 0.0 1.0 0.00 0.00 0.00 36 1020.5